Location: West Chester
(39.9610°N, 75.6060°W)
Time: 20:13:37
(UTC-04:00)

ARIANE 6 FM1 Upper Stage - Pass Details

Date: 23 September 2024
Orbit: 563 x 594 km, 62.0° (Epoch: 11 October)

Event Time Altitude Azimuth Distance (km) Brightness Sun altitude
Rises 20:51:10 0° 248° (WSW) 2,774 7.0 -22.4°
Reaches altitude 10° 20:53:45 10° 263° (W) 1,886 6.2 -22.8°
Maximum altitude 20:57:12 24° 317° (NW) 1,237 5.0 -23.4°
Drops below altitude 10° 21:00:42 10° 12° (NNE) 1,912 5.5 -24.1°
Enters shadow 21:02:42 - 24° (NNE) 2,591 6.0 -24.4°
